User: anonymous   Login
Location: Lac de la Montange Noire
(46.1952°N, 74.2701°W)
Time: 17:55:04
(UTC-04:00)
Language:

Iridium 42 - Orbit

View from above orbital plane
View from above orbital plane
View from above satellite
View from above satellite

Ground track
Ground track

The orbit data is extracted from the following two-line orbital elements,

1 25077U 97077A   14296.43928324  .00000416  00000-0  14134-3 0    53
2 25077 086.3972 066.4990 0002192 111.7795 248.3634 14.34251622883466
Epoch (UTC): 23 October 2014 10:32:34
Eccentricity: 0.0002192
inclination: 86.3972°
perigee height: 776 km
apogee height: 779 km
right ascension of ascending node: 66.4990°
argument of perigee: 111.7795°
revolutions per day: 14.34251622
mean anomaly at epoch: 248.3634°
orbit number at epoch: 88346

The dashed part of the orbit path shows where the satellite is in the earth's shadow,  

DLR